sat.trackr.live / text

‹ back to catalog

GEESAT-6 02

NORAD 65714 · 2025-214C

PAYLOAD ACTIVE UNKNOWN

§ Identity

Operator
Country
PRC
Launch date
2025-09-24
Launch site
YSLA
Launch vehicle
Mass (kg)
RCS (m²)

External: N2YO · Heavens-Above · Gunter

§ Orbital elements

Epoch: 2026-05-25T03:35:36.310848Z

Period
97.08 min
Inclination
49.9855°
Eccentricity
0.0009948
Mean motion
14.83265492 rev/d
Perigee alt
612.1 km
Apogee alt
626.0 km
Semi-major
6,997.2 km
B*
2.1838e-4
RAAN
55.2471°
Arg perigee
124.4560°
Mean anomaly
235.7319°
Rev number
3,608

§ Raw data

GEESAT-6 021 65714U 25214C   26145.14972582  .00001579  00000+0  21838-3 0  99992 65714  49.9855  55.2471 0009948 124.4560 235.7319 14.83265492 36082

JSON: /api/v1/satellites/65714 · /tle

For live sub-satellite position, see the globe view (requires WebGL).

§ Visibility from observer

Set your observer location to see the next 7 days of passes ≥ 10°. The values pass through the URL so the page stays shareable.

No JS? Fill the form by hand. The geolocation button needs JavaScript.